CST,Max TemperatureF,Mean TemperatureF,Min TemperatureF,Max Dew PointF,MeanDew PointF,Min DewpointF,Max Humidity, Mean Humidity, Min Humidity, Max Sea Level PressureIn, Mean Sea Level PressureIn, Min Sea Level PressureIn, Max VisibilityMiles, Mean VisibilityMiles, Min VisibilityMiles, Max Wind SpeedMPH, Mean Wind SpeedMPH, Max Gust SpeedMPH,PrecipitationIn, CloudCover, Events, WindDirDegrees
2011-11-1,73,54,35,43,37,32,90,59,24,30.28,30.23,30.19,10,10,10,14,3,21,0.00,0,,56
2011-11-2,75,57,39,51,44,34,92,65,40,30.33,30.23,30.18,10,10,9,10,4,,0.00,0,,110
2011-11-3,77,61,46,66,57,39,92,79,59,30.18,30.03,29.91,10,10,2,21,8,31,0.00,5,Rain,199
2011-11-4,62,50,38,45,41,36,90,75,53,30.10,30.05,30.00,10,10,10,17,7,23,0.00,1,,318
2011-11-5,71,56,42,45,38,33,94,61,25,30.23,30.16,30.10,10,10,10,16,5,20,0.00,0,,44
2011-11-6,74,58,41,55,45,34,79,66,50,30.32,30.25,30.21,10,10,10,9,6,,0.00,2,,49
2011-11-7,76,63,50,58,55,48,95,72,52,30.29,30.22,30.16,10,10,10,9,3,,0.00,4,,67
2011-11-8,80,68,55,58,55,53,95,73,39,30.19,30.12,30.07,10,9,2,12,3,20,0.00,4,,138
2011-11-9,73,63,53,66,57,52,100,91,68,30.10,30.07,29.99,10,6,1,20,2,25,0.30,3,Rain,148
2011-11-10,57,51,43,55,44,26,96,75,43,30.21,30.08,30.01,10,10,10,20,10,28,0.00,5,Rain,331
2011-11-11,63,46,30,35,29,24,90,57,24,30.31,30.25,30.21,10,10,10,12,5,,0.00,0,,337
2011-11-12,66,47,28,47,35,19,92,68,18,30.33,30.27,30.22,10,10,10,9,2,,0.00,1,,112
2011-11-13,75,62,48,61,54,39,96,74,57,30.22,30.16,30.11,10,10,10,15,7,23,0.00,2,,120
2011-11-14,77,66,55,66,60,55,100,93,67,30.13,30.08,30.02,10,4,0,17,3,22,0.00,2,Fog,138
2011-11-15,77,68,60,73,67,61,100,96,73,30.04,29.98,29.90,10,5,0,17,4,23,0.01,6,Fog-Rain,143
2011-11-16,79,72,65,73,71,62,100,91,62,29.93,29.89,29.83,10,10,5,25,13,36,0.03,6,Rain-Thunderstorm,188
2011-11-17,67,56,40,65,47,28,95,65,30,30.30,30.12,29.94,10,10,9,17,10,25,0.00,3,,339
2011-11-18,66,48,30,49,38,26,86,62,46,30.34,30.28,30.22,10,10,10,13,5,17,0.00,2,,62
2011-11-19,70,61,52,63,57,46,91,80,64,30.25,30.21,30.17,10,10,10,12,6,18,0.00,6,,96
2011-11-20,75,68,60,68,64,59,100,92,70,30.29,30.24,30.20,10,8,0,14,4,,0.00,5,Fog,121
2011-11-21,80,68,57,71,60,57,100,95,52,30.28,30.23,30.12,10,3,0,10,1,,0.00,0,Fog,83
2011-11-22,77,68,60,72,68,57,100,90,75,30.13,30.06,30.01,10,8,2,17,6,23,0.15,5,Rain,184
2011-11-23,70,60,48,70,61,46,100,87,53,30.22,30.08,30.02,10,9,2,13,7,21,0.26,5,Rain,311
2011-11-24,69,55,40,46,40,35,93,68,28,30.32,30.27,30.20,10,10,10,10,6,,0.00,0,,24
2011-11-25,72,54,37,51,45,35,91,70,43,30.33,30.25,30.17,10,10,10,15,4,21,0.00,1,,107
2011-11-26,76,68,61,62,55,49,79,64,42,30.19,30.13,30.06,10,10,10,18,9,28,0.00,4,,120
2011-11-27,,,,,,,,,,,,,,,,,,,0.00,,,-1
2011-11-28,51,44,38,43,40,35,93,81,58,30.00,29.95,29.91,10,10,10,14,8,20,0.00,6,,270
2011-11-29,57,46,35,36,34,29,91,66,37,30.11,30.01,29.94,10,10,10,16,9,23,0.00,4,,280
2011-11-30,52,40,28,36,33,27,93,74,50,30.21,30.15,30.10,10,10,7,13,7,18,0.00,3,,339